"Pseudo-MPEC" for C2F4312

Created 2020 Mar 28 6:07:06 UT using Find_Orb

Click here for an explanation of pseudo-MPECs

 
 Astrometry: 
     C2F4312  C2020 03 23vw9*j'7,`x.'M9g_cs'!8/ZpX?E]M3Wf!H/.bai5/0Nr7HSl:=LdF52
     C2F4312  C2020 03 23Ol02L7y)Wq+YmAhceWLu+xf-QYH_fwQPcWAAstrometryc;yZ2;mF52
     C2F4312  C2020 03 23T]0s:\HyZia1c4a)1mZO$!l?T?gredacted;Afu$vHrXpr8_Y$;vF52
     C2F4312  C2020 03 238#%#J9,N;xnI%g6Te%P3clickwc*I!C\Y_XK8OfQ[:F4bpmP,m*rF52
     C2F4312  C2020 03 25.41839 15 24 32.26 +11 06 55.1    ~3PAq 22.0 GVNEOCPG96
     C2F4312  C2020 03 25.42349 15 24 32.66 +11 07 03.7    ~3PAq 21.4 GVNEOCPG96
     C2F4312  C2020 03 25.42861 15 24 33.06 +11 07 12.8    ~3PAq 20.8 GVNEOCPG96
     C2F4312  C2020 03 25.43371 15 24 33.48 +11 07 21.5    ~3PAq 21.8 GVNEOCPG96
     C2F4312  C2020 03 25.50879 15 24 39.32 +11 09 29.7    ~3PCb 21.7 GVNEOCPG96
     C2F4312  C2020 03 25.51108 15 24 39.50 +11 09 33.7    ~3PCb 22.1 GVNEOCPG96
     C2F4312  C2020 03 25.51382 15 24 39.71 +11 09 37.4    ~3PCb 21.5 GVNEOCPG96
     C2F4312  C2020 03 25.51648 15 24 39.95 +11 09 42.6    ~3PCb 21.2 GVNEOCPG96
     C2F4312  C2020 03 26.06299 15 25 24.90 +11 25 15.2    ~3Q2b 20.4 VVNEOCP033
     C2F4312  C2020 03 26.06657 15 25 25.15 +11 25 20.9    ~3Q2b 20.7 VVNEOCP033
     C2F4312  C2020 03 26.07015 15 25 25.42 +11 25 27.4    ~3Q2b 20.4 VVNEOCP033
     C2F4312 KC2020 03 26r4_JwiMSg02LB^hZg.f26e()oiwS;IgM?D!r11*7-BYh/gT2i@.IH21
     C2F4312 KC2020 03 26,#8]0-`x-4qQ5iMS-p2OYy]EC$HQM./?herek?L+q3?h?T1[T_5/H21
     C2F4312 bC2020 03 27Gkh!OhDS6OZD8Si2Yt)lnLeH]GWB\s+]N^m\,2Z*$3M6lG@9oF$)L01
     C2F4312 bC2020 03 27KOa1E@9]hU@ha,#k06G]@Aforv5g-J6Pglf3UexplanationJU1DL01

Station data:
(033) Karl Schwarzschild Observatory, Tautenburg  (N50.980140 E11.711240)
   Germany. 1.3-m Schmidt.
(F52) Pan-STARRS 2, Haleakala  (N20.707384 W156.255910)  US/Hawaii. 1.8-m
   Ritchey-Chrétien + CCD.
(G96) Mt. Lemmon Survey  (N32.442754 W110.788720)  US/Arizona.  Observers T.
   A. Pruyne, B. M. Africano, E. J. Christensen, G. A. Farneth, D. C. Fuls,
   A. R. Gibbs, A. D. Grauer, H. Gröller, J. A. Johnson, R. A. Kowalski, S.
   M. Larson, G. J. Leonard, D. Rankin, R. L. Seaman, F. C. Shelly. 1.5-m
   reflector + 10K CCD.
(H21) Astronomical Research Observatory, Westfield  (N39.483057 W87.968270)
   US/Illinois. 0.76-m f/3.0 astrograph + CCD.
(L01) Višnjan Observatory, Tičan  (N45.290900 E13.749300)  Croatia.
   Observers K. Korlević, E. Pettarin. Measurer E. Pettarin. 1.0-m f/2.9
   reflector + CCD.

Orbital elements:  C2F4312
   Perihelion 2020 Jun 18.781738 +/- 0.666 TT = 18:45:42 (JD 2459019.281738)
Epoch 2020 Mar 27.0 TT = JDT 2458935.5   Earth MOID: 0.6128   AutoNEOCP
M 344.15900783 +/- 0.7              (J2000 ecliptic)
n   0.18907452 +/- 0.008            Peri.   94.59316 +/- 0.8
a   3.00640422 +/- 0.0848           Node   163.65114 +/- 0.37
e   0.5224655 +/- 0.0109            Incl.   21.73392 +/- 0.23
P   5.21                   H 19.7   G  0.15   U  9.5  
q 1.43566156 +/- 0.00846    Q 4.57714688 +/- 0.168
From 19 observations 2020 Mar. 23-27; mean residual 0".27
Residuals in arcseconds: 
200323 F52  .17-  .11+    200325 G96  .30+  .23+    200326 033  .28-  .10-    
200323 F52  .10-  .14+    200325 G96  .12-  .55+    200326 H21  .30-  .14-    
200323 F52  .07+  .17-    200325 G96  .11-  .65+    200326 H21  .25+  .43-    
200323 F52  .20+  .20-    200325 G96  .18-  .31-    200327 L01  .06+  .25-    
200325 G96  .04-  .05-    200325 G96  .28+  .36+    200327 L01  .00   .61+    
200325 G96  .01-  .14-    200326 033  .33+  .01+    
200325 G96  .01-  .23+    200326 033  .12-  .44-    

Ephemerides (geocentric):
Date (UTC) HH   RA              Dec         delta   r     elong  mag " sig PA
---- -- -- --  -------------   -----------  ------ ------ -----  --- ---- ---
2020 03 28 06  15 28 20.028   +12 28 49.20  .81278 1.6606 132.7 21.5 .837 126
2020 03 28 07  15 28 23.317   +12 30 02.66  .81247 1.6604 132.7 21.5 .863 126
2020 03 28 08  15 28 26.606   +12 31 16.16  .81215 1.6602 132.7 21.5 .889 126
2020 03 28 09  15 28 29.892   +12 32 29.69  .81184 1.6600 132.7 21.5 .915 126
2020 03 28 10  15 28 33.176   +12 33 43.26  .81152 1.6598 132.8 21.5 .942 126
2020 03 28 11  15 28 36.459   +12 34 56.86  .81120 1.6596 132.8 21.5 .969 126
2020 03 28 12  15 28 39.739   +12 36 10.49  .81089 1.6594 132.8 21.5 1.00 126
2020 03 28 13  15 28 43.018   +12 37 24.15  .81057 1.6592 132.8 21.5 1.02 126
2020 03 28 14  15 28 46.295   +12 38 37.85  .81026 1.6590 132.8 21.5 1.05 125
2020 03 28 15  15 28 49.570   +12 39 51.58  .80995 1.6588 132.8 21.5 1.08 125
2020 03 28 16  15 28 52.844   +12 41 05.34  .80963 1.6586 132.8 21.5 1.11 125
2020 03 28 17  15 28 56.115   +12 42 19.14  .80932 1.6584 132.8 21.5 1.14 125
2020 03 28 18  15 28 59.384   +12 43 32.97  .80901 1.6582 132.8 21.5 1.17 125
2020 03 28 19  15 29 02.652   +12 44 46.83  .80869 1.6580 132.9 21.5 1.20 125
2020 03 28 20  15 29 05.918   +12 46 00.72  .80838 1.6578 132.9 21.5 1.23 125
2020 03 28 21  15 29 09.182   +12 47 14.64  .80807 1.6576 132.9 21.5 1.26 125
2020 03 28 22  15 29 12.444   +12 48 28.60  .80776 1.6574 132.9 21.5 1.29 125
2020 03 28 23  15 29 15.704   +12 49 42.59  .80745 1.6572 132.9 21.5 1.32 125
2020 03 29 00  15 29 18.962   +12 50 56.61  .80714 1.6570 132.9 21.5 1.35 125
2020 03 29 01  15 29 22.218   +12 52 10.67  .80683 1.6568 132.9 21.5 1.38 125
2020 03 29 02  15 29 25.473   +12 53 24.75  .80652 1.6566 132.9 21.5 1.42 125
2020 03 29 03  15 29 28.725   +12 54 38.87  .80621 1.6564 132.9 21.5 1.45 124
2020 03 29 04  15 29 31.976   +12 55 53.02  .80590 1.6562 132.9 21.5 1.48 124
2020 03 29 05  15 29 35.225   +12 57 07.20  .80559 1.6560 133.0 21.5 1.52 124
2020 03 29 06  15 29 38.472   +12 58 21.41  .80528 1.6558 133.0 21.5 1.55 124
2020 03 29 07  15 29 41.717   +12 59 35.66  .80497 1.6556 133.0 21.5 1.58 124
2020 03 29 08  15 29 44.960   +13 00 49.93  .80466 1.6554 133.0 21.5 1.62 124
2020 03 29 09  15 29 48.201   +13 02 04.24  .80435 1.6552 133.0 21.5 1.65 124
2020 03 29 10  15 29 51.440   +13 03 18.58  .80405 1.6550 133.0 21.5 1.69 124
2020 03 29 11  15 29 54.678   +13 04 32.94  .80374 1.6548 133.0 21.5 1.72 124
2020 03 29 12  15 29 57.914   +13 05 47.34  .80343 1.6546 133.0 21.5 1.76 124
2020 03 29 13  15 30 01.147   +13 07 01.78  .80312 1.6544 133.0 21.5 1.79 124
2020 03 29 14  15 30 04.379   +13 08 16.24  .80282 1.6542 133.1 21.5 1.83 124
2020 03 29 15  15 30 07.609   +13 09 30.73  .80251 1.6540 133.1 21.5 1.87 124
2020 03 29 16  15 30 10.837   +13 10 45.25  .80221 1.6538 133.1 21.5 1.91 124
2020 03 29 17  15 30 14.063   +13 11 59.81  .80190 1.6536 133.1 21.5 1.94 124
2020 03 29 18  15 30 17.287   +13 13 14.39  .80160 1.6534 133.1 21.5 1.98 124
2020 03 29 19  15 30 20.509   +13 14 29.01  .80129 1.6532 133.1 21.5 2.02 124
2020 03 29 20  15 30 23.730   +13 15 43.65  .80099 1.6530 133.1 21.5 2.06 124
2020 03 29 21  15 30 26.948   +13 16 58.33  .80068 1.6528 133.1 21.5 2.10 124
2020 03 29 22  15 30 30.165   +13 18 13.03  .80038 1.6526 133.1 21.5 2.14 123
2020 03 29 23  15 30 33.379   +13 19 27.77  .80008 1.6524 133.1 21.5 2.18 123
2020 03 30 00  15 30 36.592   +13 20 42.54  .79977 1.6522 133.2 21.5 2.22 123
2020 03 30 01  15 30 39.803   +13 21 57.33  .79947 1.6520 133.2 21.5 2.26 123
2020 03 30 02  15 30 43.012   +13 23 12.16  .79917 1.6518 133.2 21.5 2.30 123
2020 03 30 03  15 30 46.219   +13 24 27.01  .79887 1.6516 133.2 21.5 2.34 123
2020 03 30 04  15 30 49.424   +13 25 41.90  .79857 1.6514 133.2 21.5 2.38 123
2020 03 30 05  15 30 52.627   +13 26 56.81  .79826 1.6512 133.2 21.5 2.42 123